Year,Month,Day,Hour,Minute,Value (Times are PST for temperature in C)
2018,07,22,00,00,15.90
2018,07,22,00,01,15.80
2018,07,22,00,02,15.80
2018,07,22,00,03,15.80
2018,07,22,00,04,15.80
2018,07,22,00,05,15.80
2018,07,22,00,06,15.80
2018,07,22,00,07,15.80
2018,07,22,00,08,15.70
2018,07,22,00,09,15.70
2018,07,22,00,10,15.70
2018,07,22,00,11,15.70
2018,07,22,00,12,15.70
2018,07,22,00,13,15.60
2018,07,22,00,14,15.60
2018,07,22,00,15,15.60
2018,07,22,00,16,15.60
2018,07,22,00,17,15.60
2018,07,22,00,18,15.60
2018,07,22,00,19,15.50
2018,07,22,00,20,15.50
2018,07,22,00,21,15.50
2018,07,22,00,22,15.40
2018,07,22,00,23,15.40
2018,07,22,00,24,15.40
2018,07,22,00,25,15.40
2018,07,22,00,26,15.40
2018,07,22,00,27,15.30
2018,07,22,00,28,15.30
2018,07,22,00,29,15.30
2018,07,22,00,30,15.30
2018,07,22,00,31,15.30
2018,07,22,00,32,15.30
2018,07,22,00,33,15.30
2018,07,22,00,34,15.30
2018,07,22,00,35,15.30
2018,07,22,00,36,15.30
2018,07,22,00,37,15.30
2018,07,22,00,38,15.30
2018,07,22,00,39,15.20
2018,07,22,00,40,15.20
2018,07,22,00,41,15.20
2018,07,22,00,42,15.20
2018,07,22,00,43,15.20
2018,07,22,00,44,15.20
2018,07,22,00,45,15.20
2018,07,22,00,46,15.20
2018,07,22,00,47,15.20
2018,07,22,00,48,15.20
2018,07,22,00,49,15.20
2018,07,22,00,50,15.20
2018,07,22,00,51,15.20
2018,07,22,00,52,15.20
2018,07,22,00,53,15.20
2018,07,22,00,54,15.20
2018,07,22,00,55,15.20
2018,07,22,00,56,15.20
2018,07,22,00,57,15.20
2018,07,22,00,58,15.20
2018,07,22,00,59,15.20
2018,07,22,01,00,15.20
2018,07,22,01,01,15.20
2018,07,22,01,02,15.20
2018,07,22,01,03,15.20
2018,07,22,01,04,15.30
2018,07,22,01,05,15.30
2018,07,22,01,06,15.40
2018,07,22,01,07,15.50
2018,07,22,01,08,15.50
2018,07,22,01,09,15.60
2018,07,22,01,10,15.70
2018,07,22,01,11,15.80
2018,07,22,01,12,15.90
2018,07,22,01,13,16.00
2018,07,22,01,14,16.10
2018,07,22,01,15,16.20
2018,07,22,01,16,16.30
2018,07,22,01,17,16.40
2018,07,22,01,18,16.40
2018,07,22,01,19,16.50
2018,07,22,01,20,16.60
2018,07,22,01,21,16.70
2018,07,22,01,22,16.80
2018,07,22,01,23,16.90
2018,07,22,01,24,17.00
2018,07,22,01,25,17.10
2018,07,22,01,26,17.20
2018,07,22,01,27,17.30
2018,07,22,01,28,17.30
2018,07,22,01,29,17.40
2018,07,22,01,30,17.40
2018,07,22,01,31,17.40
2018,07,22,01,32,17.40
2018,07,22,01,33,17.50
2018,07,22,01,34,17.50
2018,07,22,01,35,17.50
2018,07,22,01,36,17.50
2018,07,22,01,37,17.60
2018,07,22,01,38,17.50
2018,07,22,01,39,17.60
2018,07,22,01,40,17.50
2018,07,22,01,41,17.50
2018,07,22,01,42,17.50
2018,07,22,01,43,17.50
2018,07,22,01,44,17.40
2018,07,22,01,45,17.40
2018,07,22,01,46,17.40
2018,07,22,01,47,17.30
2018,07,22,01,48,17.30
2018,07,22,01,49,17.30
2018,07,22,01,50,17.30
2018,07,22,01,51,17.20
2018,07,22,01,52,17.20
2018,07,22,01,53,17.20
2018,07,22,01,54,17.20
2018,07,22,01,55,17.10
2018,07,22,01,56,17.10
2018,07,22,01,57,17.10
2018,07,22,01,58,17.10
2018,07,22,01,59,17.10
2018,07,22,02,00,17.10
2018,07,22,02,01,17.10
2018,07,22,02,02,17.10
2018,07,22,02,03,17.10
2018,07,22,02,04,17.10
2018,07,22,02,05,17.10
2018,07,22,02,06,17.10
2018,07,22,02,07,17.10
2018,07,22,02,08,17.10
2018,07,22,02,09,17.10
2018,07,22,02,10,17.00
2018,07,22,02,11,17.00
2018,07,22,02,12,17.00
2018,07,22,02,13,17.00
2018,07,22,02,14,17.00
2018,07,22,02,15,17.00
2018,07,22,02,16,16.90
2018,07,22,02,17,16.90
2018,07,22,02,18,16.90
2018,07,22,02,19,16.90
2018,07,22,02,20,16.90
2018,07,22,02,21,16.90
2018,07,22,02,22,16.90
2018,07,22,02,23,16.90
2018,07,22,02,24,16.90
2018,07,22,02,25,16.90
2018,07,22,02,26,16.90
2018,07,22,02,27,16.90
2018,07,22,02,28,16.80
2018,07,22,02,29,16.80
2018,07,22,02,30,16.80
2018,07,22,02,31,16.80
2018,07,22,02,32,16.80
2018,07,22,02,33,16.80
2018,07,22,02,34,16.80
2018,07,22,02,35,16.80
2018,07,22,02,36,16.70
2018,07,22,02,37,16.70
2018,07,22,02,38,16.70
2018,07,22,02,39,16.70
2018,07,22,02,40,16.60
2018,07,22,02,41,16.60
2018,07,22,02,42,16.60
2018,07,22,02,43,16.60
2018,07,22,02,44,16.50
2018,07,22,02,45,16.50
2018,07,22,02,46,16.50
2018,07,22,02,47,16.40
2018,07,22,02,48,16.40
2018,07,22,02,49,16.40
2018,07,22,02,50,16.40
2018,07,22,02,51,16.40
2018,07,22,02,52,16.40
2018,07,22,02,53,16.40
2018,07,22,02,54,16.40
2018,07,22,02,55,16.40
2018,07,22,02,56,16.40
2018,07,22,02,57,16.40
2018,07,22,02,58,16.40
2018,07,22,02,59,16.40
2018,07,22,03,00,16.40
2018,07,22,03,01,16.40
2018,07,22,03,02,16.50
2018,07,22,03,03,16.50
2018,07,22,03,04,16.50
2018,07,22,03,05,16.50
2018,07,22,03,06,16.50
2018,07,22,03,07,16.50
2018,07,22,03,08,16.50
2018,07,22,03,09,16.40
2018,07,22,03,10,16.40
2018,07,22,03,11,16.40
2018,07,22,03,12,16.40
2018,07,22,03,13,16.40
2018,07,22,03,14,16.40
2018,07,22,03,15,16.30
2018,07,22,03,16,16.30
2018,07,22,03,17,16.30
2018,07,22,03,18,16.30
2018,07,22,03,19,16.20
2018,07,22,03,20,16.20
2018,07,22,03,21,16.20
2018,07,22,03,22,16.20
2018,07,22,03,23,16.10
2018,07,22,03,24,16.10
2018,07,22,03,25,16.10
2018,07,22,03,26,16.00
2018,07,22,03,27,16.00
2018,07,22,03,28,15.90
2018,07,22,03,29,15.90
2018,07,22,03,30,15.80
2018,07,22,03,31,15.80
2018,07,22,03,32,15.70
2018,07,22,03,33,15.70
2018,07,22,03,34,15.60
2018,07,22,03,35,15.60
2018,07,22,03,36,15.50
2018,07,22,03,37,15.50
2018,07,22,03,38,15.40
2018,07,22,03,39,15.40
2018,07,22,03,40,15.30
2018,07,22,03,41,15.30
2018,07,22,03,42,15.20
2018,07,22,03,43,15.20
2018,07,22,03,44,15.20
2018,07,22,03,45,15.10
2018,07,22,03,46,15.00
2018,07,22,03,47,15.00
2018,07,22,03,48,15.00
2018,07,22,03,49,15.00
2018,07,22,03,50,15.00
2018,07,22,03,51,15.00
2018,07,22,03,52,15.00
2018,07,22,03,53,15.00
2018,07,22,03,54,15.00
2018,07,22,03,55,15.00
2018,07,22,03,56,15.00
2018,07,22,03,57,15.00
2018,07,22,03,58,15.00
2018,07,22,03,59,15.00
2018,07,22,04,00,15.00
2018,07,22,04,01,15.00
2018,07,22,04,02,15.00
2018,07,22,04,03,15.00
2018,07,22,04,04,15.00
2018,07,22,04,05,15.00
2018,07,22,04,06,15.00
2018,07,22,04,07,15.10
2018,07,22,04,08,15.10
2018,07,22,04,09,15.10
2018,07,22,04,10,15.20
2018,07,22,04,11,15.10
2018,07,22,04,12,15.10
2018,07,22,04,13,15.00
2018,07,22,04,14,15.00
2018,07,22,04,15,15.00
2018,07,22,04,16,15.00
2018,07,22,04,17,15.00
2018,07,22,04,18,15.00
2018,07,22,04,19,15.00
2018,07,22,04,20,15.00
2018,07,22,04,21,15.00
2018,07,22,04,22,15.00
2018,07,22,04,23,15.00
2018,07,22,04,24,15.00
2018,07,22,04,25,14.90
2018,07,22,04,26,14.90
2018,07,22,04,27,14.90
2018,07,22,04,28,14.90
2018,07,22,04,29,14.90
2018,07,22,04,30,14.90
2018,07,22,04,31,14.90
2018,07,22,04,32,14.90
2018,07,22,04,33,14.90
2018,07,22,04,34,15.00
2018,07,22,04,35,15.00
2018,07,22,04,36,15.00
2018,07,22,04,37,14.90
2018,07,22,04,38,14.90
2018,07,22,04,39,14.90
2018,07,22,04,40,14.80
2018,07,22,04,41,14.80
2018,07,22,04,42,14.80
2018,07,22,04,43,14.70
2018,07,22,04,44,14.70
2018,07,22,04,45,14.70
2018,07,22,04,46,14.70
2018,07,22,04,47,14.60
2018,07,22,04,48,14.60
2018,07,22,04,49,14.60
2018,07,22,04,50,14.60
2018,07,22,04,51,14.60
2018,07,22,04,52,14.60
2018,07,22,04,53,14.60
2018,07,22,04,54,14.60
2018,07,22,04,55,14.60
2018,07,22,04,56,14.70
2018,07,22,04,57,14.70
2018,07,22,04,58,14.70
2018,07,22,04,59,14.80
2018,07,22,05,00,14.80
2018,07,22,05,01,14.90
2018,07,22,05,02,14.90
2018,07,22,05,03,15.00
2018,07,22,05,04,15.00
2018,07,22,05,05,15.00
2018,07,22,05,06,15.00
2018,07,22,05,07,15.00
2018,07,22,05,08,15.00
2018,07,22,05,09,15.00
2018,07,22,05,10,15.00
2018,07,22,05,11,15.00
2018,07,22,05,12,15.00
2018,07,22,05,13,15.00
2018,07,22,05,14,15.00
2018,07,22,05,15,15.00
2018,07,22,05,16,15.00
2018,07,22,05,17,15.00
2018,07,22,05,18,15.00
2018,07,22,05,19,15.00
2018,07,22,05,20,15.00
2018,07,22,05,21,15.00
2018,07,22,05,22,15.00
2018,07,22,05,23,15.00
2018,07,22,05,24,15.00
2018,07,22,05,25,14.90
2018,07,22,05,26,14.90
2018,07,22,05,27,14.80
2018,07,22,05,28,14.80
2018,07,22,05,29,14.80
2018,07,22,05,30,14.80
2018,07,22,05,31,14.80
2018,07,22,05,32,14.90
2018,07,22,05,33,14.90
2018,07,22,05,34,15.00
2018,07,22,05,35,15.00
2018,07,22,05,36,15.00
2018,07,22,05,37,15.00
2018,07,22,05,38,15.00
2018,07,22,05,39,15.00
2018,07,22,05,40,15.00
2018,07,22,05,41,15.00
2018,07,22,05,42,15.00
2018,07,22,05,43,15.00
2018,07,22,05,44,15.00
2018,07,22,05,45,15.00
2018,07,22,05,46,15.00
2018,07,22,05,47,15.00
2018,07,22,05,48,15.00
2018,07,22,05,49,15.00
2018,07,22,05,50,15.00
2018,07,22,05,51,15.00
2018,07,22,05,52,14.90
2018,07,22,05,53,14.90
2018,07,22,05,54,14.90
2018,07,22,05,55,14.90
2018,07,22,05,56,14.80
2018,07,22,05,57,14.80
2018,07,22,05,58,14.80
2018,07,22,05,59,14.80
2018,07,22,06,00,14.90
2018,07,22,06,01,14.90
2018,07,22,06,02,15.00
2018,07,22,06,03,15.00
2018,07,22,06,04,15.00
2018,07,22,06,05,15.00
2018,07,22,06,06,15.00
2018,07,22,06,07,15.00
2018,07,22,06,08,15.00
2018,07,22,06,09,15.00
2018,07,22,06,10,15.00
2018,07,22,06,11,15.00
2018,07,22,06,12,15.00
2018,07,22,06,13,15.00
2018,07,22,06,14,15.00
2018,07,22,06,15,15.00
2018,07,22,06,16,15.10
2018,07,22,06,17,15.20
2018,07,22,06,18,15.20
2018,07,22,06,19,15.20
2018,07,22,06,20,15.30
2018,07,22,06,21,15.30
2018,07,22,06,22,15.30
2018,07,22,06,23,15.30
2018,07,22,06,24,15.40
2018,07,22,06,25,15.40
2018,07,22,06,26,15.40
2018,07,22,06,27,15.50
2018,07,22,06,28,15.50
2018,07,22,06,29,15.50
2018,07,22,06,30,15.60
2018,07,22,06,31,15.60
2018,07,22,06,32,15.60
2018,07,22,06,33,15.60
2018,07,22,06,34,15.60
2018,07,22,06,35,15.70
2018,07,22,06,36,15.70
2018,07,22,06,37,15.70
2018,07,22,06,38,15.70
2018,07,22,06,39,15.70
2018,07,22,06,40,15.80
2018,07,22,06,41,15.80
2018,07,22,06,42,15.80
2018,07,22,06,43,15.80
2018,07,22,06,44,15.90
2018,07,22,06,45,15.90
2018,07,22,06,46,15.90
2018,07,22,06,47,15.90
2018,07,22,06,48,16.00
2018,07,22,06,49,16.00
2018,07,22,06,50,16.00
2018,07,22,06,51,16.10
2018,07,22,06,52,16.10
2018,07,22,06,53,16.10
2018,07,22,06,54,16.10
2018,07,22,06,55,16.10
2018,07,22,06,56,16.10
2018,07,22,06,57,16.10
2018,07,22,06,58,16.10
2018,07,22,06,59,16.10
2018,07,22,07,00,16.20
2018,07,22,07,01,16.20
2018,07,22,07,02,16.20
2018,07,22,07,03,16.20
2018,07,22,07,04,16.20
2018,07,22,07,05,16.20
2018,07,22,07,06,16.30
2018,07,22,07,07,16.30
2018,07,22,07,08,16.30
2018,07,22,07,09,16.30
2018,07,22,07,10,16.40
2018,07,22,07,11,16.40
2018,07,22,07,12,16.40
2018,07,22,07,13,16.40
2018,07,22,07,14,16.50
2018,07,22,07,15,16.50
2018,07,22,07,16,16.50
2018,07,22,07,17,16.60
2018,07,22,07,18,16.60
2018,07,22,07,19,16.60
2018,07,22,07,20,16.60
2018,07,22,07,21,16.70
2018,07,22,07,22,16.70
2018,07,22,07,23,16.70
2018,07,22,07,24,16.70
2018,07,22,07,25,16.70
2018,07,22,07,26,16.70
2018,07,22,07,27,16.80
2018,07,22,07,28,16.80
2018,07,22,07,29,16.80
2018,07,22,07,30,16.80
2018,07,22,07,31,16.80
2018,07,22,07,32,16.80
2018,07,22,07,33,16.80
2018,07,22,07,34,16.90
2018,07,22,07,35,16.90
2018,07,22,07,36,16.90
2018,07,22,07,37,16.90
2018,07,22,07,38,16.90
2018,07,22,07,39,16.90
2018,07,22,07,40,16.90
2018,07,22,07,41,17.00
2018,07,22,07,42,17.00
2018,07,22,07,43,17.00
2018,07,22,07,44,17.10
2018,07,22,07,45,17.10
2018,07,22,07,46,17.10
2018,07,22,07,47,17.10
2018,07,22,07,48,17.10
2018,07,22,07,49,17.10
2018,07,22,07,50,17.10
2018,07,22,07,51,17.10
2018,07,22,07,52,17.10
2018,07,22,07,53,17.10
2018,07,22,07,54,17.10
2018,07,22,07,55,17.20
2018,07,22,07,56,17.20
2018,07,22,07,57,17.20
2018,07,22,07,58,17.10
2018,07,22,07,59,17.10
2018,07,22,08,00,17.10
2018,07,22,08,01,17.20
2018,07,22,08,02,17.20
2018,07,22,08,03,17.20
2018,07,22,08,04,17.20
2018,07,22,08,05,17.30
2018,07,22,08,06,17.30
2018,07,22,08,07,17.30
2018,07,22,08,08,17.30
2018,07,22,08,09,17.40
2018,07,22,08,10,17.40
2018,07,22,08,11,17.40
2018,07,22,08,12,17.50
2018,07,22,08,13,17.50
2018,07,22,08,14,17.50
2018,07,22,08,15,17.60
2018,07,22,08,16,17.60
2018,07,22,08,17,17.60
2018,07,22,08,18,17.60
2018,07,22,08,19,17.60
2018,07,22,08,20,17.60
2018,07,22,08,21,17.70
2018,07,22,08,22,17.70
2018,07,22,08,23,17.80
2018,07,22,08,24,17.80
2018,07,22,08,25,17.90
2018,07,22,08,26,17.90
2018,07,22,08,27,18.00
2018,07,22,08,28,18.00
2018,07,22,08,29,18.10
2018,07,22,08,30,18.10
2018,07,22,08,31,18.20
2018,07,22,08,32,18.20
2018,07,22,08,33,18.20
2018,07,22,08,34,18.30
2018,07,22,08,35,18.30
2018,07,22,08,36,18.30
2018,07,22,08,37,18.30
2018,07,22,08,38,18.20
2018,07,22,08,39,18.20
2018,07,22,08,40,18.20
2018,07,22,08,41,18.20
2018,07,22,08,42,18.20
2018,07,22,08,43,18.20
2018,07,22,08,44,18.10
2018,07,22,08,45,18.00
2018,07,22,08,46,18.00
2018,07,22,08,47,17.90
2018,07,22,08,48,17.90
2018,07,22,08,49,17.90
2018,07,22,08,50,17.90
2018,07,22,08,51,18.00
2018,07,22,08,52,18.00
2018,07,22,08,53,18.10
2018,07,22,08,54,18.10
2018,07,22,08,55,18.20
2018,07,22,08,56,18.20
2018,07,22,08,57,18.20
2018,07,22,08,58,18.30
2018,07,22,08,59,18.40
2018,07,22,09,00,18.40
2018,07,22,09,01,18.40
2018,07,22,09,02,18.50
2018,07,22,09,03,18.50
2018,07,22,09,04,18.50
2018,07,22,09,05,18.60
2018,07,22,09,06,18.60
2018,07,22,09,07,18.60
2018,07,22,09,08,18.60
2018,07,22,09,09,18.60
2018,07,22,09,10,18.50
2018,07,22,09,11,18.40
2018,07,22,09,12,18.30
2018,07,22,09,13,18.20
2018,07,22,09,14,18.20
2018,07,22,09,15,18.10
2018,07,22,09,16,18.10
2018,07,22,09,17,18.20
2018,07,22,09,18,18.20
2018,07,22,09,19,18.20
2018,07,22,09,20,18.10
2018,07,22,09,21,18.10
2018,07,22,09,22,18.10
2018,07,22,09,23,18.10
2018,07,22,09,24,18.10
2018,07,22,09,25,18.10
2018,07,22,09,26,18.10
2018,07,22,09,27,18.10
2018,07,22,09,28,18.10
2018,07,22,09,29,18.10
2018,07,22,09,30,18.10
2018,07,22,09,31,18.10
2018,07,22,09,32,18.10
2018,07,22,09,33,18.10
2018,07,22,09,34,18.10
2018,07,22,09,35,18.10
2018,07,22,09,36,18.20
2018,07,22,09,37,18.20
2018,07,22,09,38,18.30
2018,07,22,09,39,18.30
2018,07,22,09,40,18.40
2018,07,22,09,41,18.40
2018,07,22,09,42,18.40
2018,07,22,09,43,18.40
2018,07,22,09,44,18.40
2018,07,22,09,45,18.30
2018,07,22,09,46,18.30
2018,07,22,09,47,18.30
2018,07,22,09,48,18.30
2018,07,22,09,49,18.30
2018,07,22,09,50,18.30
2018,07,22,09,51,18.30
2018,07,22,09,52,18.30
2018,07,22,09,53,18.30
2018,07,22,09,54,18.30
2018,07,22,09,55,18.30
2018,07,22,09,56,18.30
2018,07,22,09,57,18.30
2018,07,22,09,58,18.30
2018,07,22,09,59,18.30
2018,07,22,10,00,18.30
2018,07,22,10,01,18.30
2018,07,22,10,02,18.30
2018,07,22,10,03,18.20
2018,07,22,10,04,18.20
2018,07,22,10,05,18.20
2018,07,22,10,06,18.20
2018,07,22,10,07,18.10
2018,07,22,10,08,18.10
2018,07,22,10,09,18.10
2018,07,22,10,10,18.10
2018,07,22,10,11,18.10
2018,07,22,10,12,18.20
2018,07,22,10,13,18.20
2018,07,22,10,14,18.30
2018,07,22,10,15,18.30
2018,07,22,10,16,18.30
2018,07,22,10,17,18.30
2018,07,22,10,18,18.30
2018,07,22,10,19,18.30
2018,07,22,10,20,18.30
2018,07,22,10,21,18.30
2018,07,22,10,22,18.30
2018,07,22,10,23,18.30
2018,07,22,10,24,18.30
2018,07,22,10,25,18.40
2018,07,22,10,26,18.50
2018,07,22,10,27,18.50
2018,07,22,10,28,18.60
2018,07,22,10,29,18.60
2018,07,22,10,30,18.50
2018,07,22,10,31,18.50
2018,07,22,10,32,18.50
2018,07,22,10,33,18.50
2018,07,22,10,34,18.50
2018,07,22,10,35,18.50
2018,07,22,10,36,18.50
2018,07,22,10,37,18.50
2018,07,22,10,38,18.50
2018,07,22,10,39,18.50
2018,07,22,10,40,18.50
2018,07,22,10,41,18.50
2018,07,22,10,42,18.50
2018,07,22,10,43,18.40
2018,07,22,10,44,18.40
2018,07,22,10,45,18.30
2018,07,22,10,46,18.30
2018,07,22,10,47,18.30
2018,07,22,10,48,18.30
2018,07,22,10,49,18.30
2018,07,22,10,50,18.30
2018,07,22,10,51,18.30
2018,07,22,10,52,18.30
2018,07,22,10,53,18.30
2018,07,22,10,54,18.30
2018,07,22,10,55,18.30
2018,07,22,10,56,18.30
2018,07,22,10,57,18.30
2018,07,22,10,58,18.30
2018,07,22,10,59,18.30
2018,07,22,11,00,18.30
2018,07,22,11,01,18.30
2018,07,22,11,02,18.40
2018,07,22,11,03,18.50
2018,07,22,11,04,18.50
2018,07,22,11,05,18.60
2018,07,22,11,06,18.60
2018,07,22,11,07,18.70
2018,07,22,11,08,18.70
2018,07,22,11,09,18.70
2018,07,22,11,10,18.70
2018,07,22,11,11,18.70
2018,07,22,11,12,18.70
2018,07,22,11,13,18.70
2018,07,22,11,14,18.70
2018,07,22,11,15,18.80
2018,07,22,11,16,18.80
2018,07,22,11,17,18.80
2018,07,22,11,18,18.80
2018,07,22,11,19,18.90
2018,07,22,11,20,18.90
2018,07,22,11,21,18.90
2018,07,22,11,22,18.90
2018,07,22,11,23,18.90
2018,07,22,11,24,18.90
2018,07,22,11,25,18.90
2018,07,22,11,26,19.00
2018,07,22,11,27,19.00
2018,07,22,11,28,19.10
2018,07,22,11,29,19.10
2018,07,22,11,30,19.10
2018,07,22,11,31,19.10
2018,07,22,11,32,19.20
2018,07,22,11,33,19.20
2018,07,22,11,34,19.20
2018,07,22,11,35,19.30
2018,07,22,11,36,19.30
2018,07,22,11,37,19.30
2018,07,22,11,38,19.40
2018,07,22,11,39,19.40
2018,07,22,11,40,19.40
2018,07,22,11,41,19.50
2018,07,22,11,42,19.50
2018,07,22,11,43,19.50
2018,07,22,11,44,19.50
2018,07,22,11,45,19.50
2018,07,22,11,46,19.50
2018,07,22,11,47,19.50
2018,07,22,11,48,19.50
2018,07,22,11,49,19.50
2018,07,22,11,50,19.50
2018,07,22,11,51,19.50
2018,07,22,11,52,19.60
2018,07,22,11,53,19.60
2018,07,22,11,54,19.60
2018,07,22,11,55,19.60
2018,07,22,11,56,19.70
2018,07,22,11,57,19.60
2018,07,22,11,58,19.60
2018,07,22,11,59,19.60
2018,07,22,12,00,19.60
2018,07,22,12,01,19.70
2018,07,22,12,02,19.70
2018,07,22,12,03,19.70
2018,07,22,12,04,19.80
2018,07,22,12,05,19.80
2018,07,22,12,06,19.70
2018,07,22,12,07,19.70
2018,07,22,12,08,19.70
2018,07,22,12,09,19.70
2018,07,22,12,10,19.70
2018,07,22,12,11,19.70
2018,07,22,12,12,19.70
2018,07,22,12,13,19.80
2018,07,22,12,14,19.80
2018,07,22,12,15,19.90
2018,07,22,12,16,19.90
2018,07,22,12,17,19.90
2018,07,22,12,18,19.90
2018,07,22,12,19,19.90
2018,07,22,12,20,19.90
2018,07,22,12,21,19.80
2018,07,22,12,22,19.80
2018,07,22,12,23,19.80
2018,07,22,12,24,19.90
2018,07,22,12,25,20.00
2018,07,22,12,26,20.00
2018,07,22,12,27,20.10
2018,07,22,12,28,20.10
2018,07,22,12,29,20.20
2018,07,22,12,30,20.20
2018,07,22,12,31,20.20
2018,07,22,12,32,20.30
2018,07,22,12,33,20.40
2018,07,22,12,34,20.50
2018,07,22,12,35,20.50
2018,07,22,12,36,20.60
2018,07,22,12,37,20.60
2018,07,22,12,38,20.70
2018,07,22,12,39,20.70
2018,07,22,12,40,20.70
2018,07,22,12,41,20.70
2018,07,22,12,42,20.70
2018,07,22,12,43,20.70
2018,07,22,12,44,20.70
2018,07,22,12,45,20.70
2018,07,22,12,46,20.80
2018,07,22,12,47,20.80
2018,07,22,12,48,20.80
2018,07,22,12,49,20.80
2018,07,22,12,50,20.90
2018,07,22,12,51,20.90
2018,07,22,12,52,20.90
2018,07,22,12,53,20.90
2018,07,22,12,54,20.90
2018,07,22,12,55,21.00
2018,07,22,12,56,21.00
2018,07,22,12,57,21.00
2018,07,22,12,58,21.00
2018,07,22,12,59,21.00
2018,07,22,13,00,21.00
2018,07,22,13,01,21.00
2018,07,22,13,02,21.00
2018,07,22,13,03,21.00
2018,07,22,13,04,21.00
2018,07,22,13,05,21.10
2018,07,22,13,06,21.20
2018,07,22,13,07,21.30
2018,07,22,13,08,21.40
2018,07,22,13,09,21.50
2018,07,22,13,10,21.50
2018,07,22,13,11,21.60
2018,07,22,13,12,21.60
2018,07,22,13,13,21.60
2018,07,22,13,14,21.60
2018,07,22,13,15,21.70
2018,07,22,13,16,21.70
2018,07,22,13,17,21.70
2018,07,22,13,18,21.70
2018,07,22,13,19,21.80
2018,07,22,13,20,21.80
2018,07,22,13,21,21.80
2018,07,22,13,22,21.80
2018,07,22,13,23,21.80
2018,07,22,13,24,21.80
2018,07,22,13,25,21.80
2018,07,22,13,26,21.80
2018,07,22,13,27,21.80
2018,07,22,13,28,21.70
2018,07,22,13,29,21.60
2018,07,22,13,30,21.60
2018,07,22,13,31,21.60
2018,07,22,13,32,21.50
2018,07,22,13,33,21.50
2018,07,22,13,34,21.50
2018,07,22,13,35,21.50
2018,07,22,13,36,21.50
2018,07,22,13,37,21.50
2018,07,22,13,38,21.50
2018,07,22,13,39,21.50
2018,07,22,13,40,21.50
2018,07,22,13,41,21.60
2018,07,22,13,42,21.60
2018,07,22,13,43,21.60
2018,07,22,13,44,21.70
2018,07,22,13,45,21.70
2018,07,22,13,46,21.70
2018,07,22,13,47,21.70
2018,07,22,13,48,21.70
2018,07,22,13,49,21.70
2018,07,22,13,50,21.70
2018,07,22,13,51,21.70
2018,07,22,13,52,21.70
2018,07,22,13,53,21.70
2018,07,22,13,54,21.70
2018,07,22,13,55,21.70
2018,07,22,13,56,21.70
2018,07,22,13,57,21.80
2018,07,22,13,58,21.80
2018,07,22,13,59,21.80
2018,07,22,14,00,21.80
2018,07,22,14,01,21.80
2018,07,22,14,02,21.80
2018,07,22,14,03,21.80
2018,07,22,14,04,21.80
2018,07,22,14,05,21.90
2018,07,22,14,06,21.90
2018,07,22,14,07,22.00
2018,07,22,14,08,22.00
2018,07,22,14,09,22.10
2018,07,22,14,10,22.20
2018,07,22,14,11,22.20
2018,07,22,14,12,22.20
2018,07,22,14,13,22.20
2018,07,22,14,14,22.20
2018,07,22,14,15,22.20
2018,07,22,14,16,22.30
2018,07,22,14,17,22.30
2018,07,22,14,18,22.30
2018,07,22,14,19,22.30
2018,07,22,14,20,22.30
2018,07,22,14,21,22.30
2018,07,22,14,22,22.30
2018,07,22,14,23,22.30
2018,07,22,14,24,22.40
2018,07,22,14,25,22.40
2018,07,22,14,26,22.40
2018,07,22,14,27,22.40
2018,07,22,14,28,22.50
2018,07,22,14,29,22.60
2018,07,22,14,30,22.60
2018,07,22,14,31,22.70
2018,07,22,14,32,22.80
2018,07,22,14,33,22.80
2018,07,22,14,34,22.80
2018,07,22,14,35,22.80
2018,07,22,14,36,22.80
2018,07,22,14,37,22.90
2018,07,22,14,38,22.90
2018,07,22,14,39,23.00
2018,07,22,14,40,23.10
2018,07,22,14,41,23.10
2018,07,22,14,42,23.20
2018,07,22,14,43,23.20
2018,07,22,14,44,23.20
2018,07,22,14,45,23.20
2018,07,22,14,46,23.20
2018,07,22,14,47,23.20
2018,07,22,14,48,23.20
2018,07,22,14,49,23.20
2018,07,22,14,50,23.30
2018,07,22,14,51,23.30
2018,07,22,14,52,23.30
2018,07,22,14,53,23.30
2018,07,22,14,54,23.40
2018,07,22,14,55,23.40
2018,07,22,14,56,23.40
2018,07,22,14,57,23.50
2018,07,22,14,58,23.60
2018,07,22,14,59,23.60
2018,07,22,15,00,23.70
2018,07,22,15,01,23.70
2018,07,22,15,02,23.80
2018,07,22,15,03,23.80
2018,07,22,15,04,23.80
2018,07,22,15,05,23.90
2018,07,22,15,06,23.90
2018,07,22,15,07,24.00
2018,07,22,15,08,24.00
2018,07,22,15,09,24.10
2018,07,22,15,10,24.10
2018,07,22,15,11,24.10
2018,07,22,15,12,24.20
2018,07,22,15,13,24.20
2018,07,22,15,14,24.20
2018,07,22,15,15,24.20
2018,07,22,15,16,24.30
2018,07,22,15,17,24.30
2018,07,22,15,18,24.20
2018,07,22,15,19,24.20
2018,07,22,15,20,24.20
2018,07,22,15,21,24.20
2018,07,22,15,22,24.20
2018,07,22,15,23,24.20
2018,07,22,15,24,24.20
2018,07,22,15,25,24.20
2018,07,22,15,26,24.20
2018,07,22,15,27,24.20
2018,07,22,15,28,24.10
2018,07,22,15,29,24.10
2018,07,22,15,30,24.10
2018,07,22,15,31,24.00
2018,07,22,15,32,24.00
2018,07,22,15,33,24.00
2018,07,22,15,34,24.10
2018,07,22,15,35,24.10
2018,07,22,15,36,24.10
2018,07,22,15,37,24.20
2018,07,22,15,38,24.20
2018,07,22,15,39,24.20
2018,07,22,15,40,24.20
2018,07,22,15,41,24.20
2018,07,22,15,42,24.20
2018,07,22,15,43,24.10
2018,07,22,15,44,24.20
2018,07,22,15,45,24.20
2018,07,22,15,46,24.20
2018,07,22,15,47,24.10
2018,07,22,15,48,24.10
2018,07,22,15,49,24.10
2018,07,22,15,50,24.10
2018,07,22,15,51,24.10
2018,07,22,15,52,24.00
2018,07,22,15,53,24.10
2018,07,22,15,54,24.10
2018,07,22,15,55,24.10
2018,07,22,15,56,24.10
2018,07,22,15,57,24.10
2018,07,22,15,58,24.10
2018,07,22,15,59,24.10
2018,07,22,16,00,24.00
2018,07,22,16,01,24.00
2018,07,22,16,02,23.90
2018,07,22,16,03,23.90
2018,07,22,16,04,23.90
2018,07,22,16,05,23.90
2018,07,22,16,06,23.90
2018,07,22,16,07,23.80
2018,07,22,16,08,23.80
2018,07,22,16,09,23.90
2018,07,22,16,10,23.90
2018,07,22,16,11,23.90
2018,07,22,16,12,23.90
2018,07,22,16,13,23.90
2018,07,22,16,14,24.00
2018,07,22,16,15,24.00
2018,07,22,16,16,24.10
2018,07,22,16,17,24.10
2018,07,22,16,18,24.20
2018,07,22,16,19,24.20
2018,07,22,16,20,24.20
2018,07,22,16,21,24.30
2018,07,22,16,22,24.30
2018,07,22,16,23,24.30
2018,07,22,16,24,24.30
2018,07,22,16,25,24.40
2018,07,22,16,26,24.40
2018,07,22,16,27,24.40
2018,07,22,16,28,24.40
2018,07,22,16,29,24.40
2018,07,22,16,30,24.40
2018,07,22,16,31,24.30
2018,07,22,16,32,24.30
2018,07,22,16,33,24.30
2018,07,22,16,34,24.30
2018,07,22,16,35,24.20
2018,07,22,16,36,24.20
2018,07,22,16,37,24.20
2018,07,22,16,38,24.30
2018,07,22,16,39,24.30
2018,07,22,16,40,24.30
2018,07,22,16,41,24.40
2018,07,22,16,42,24.40
2018,07,22,16,43,24.40
2018,07,22,16,44,24.40
2018,07,22,16,45,24.50
2018,07,22,16,46,24.50
2018,07,22,16,47,24.50
2018,07,22,16,48,24.50
2018,07,22,16,49,24.50
2018,07,22,16,50,24.50
2018,07,22,16,51,24.50
2018,07,22,16,52,24.40
2018,07,22,16,53,24.40
2018,07,22,16,54,24.50
2018,07,22,16,55,24.50
2018,07,22,16,56,24.50
2018,07,22,16,57,24.50
2018,07,22,16,58,24.50
2018,07,22,16,59,24.50
2018,07,22,17,00,24.60
2018,07,22,17,01,24.60
2018,07,22,17,02,24.70
2018,07,22,17,03,24.70
2018,07,22,17,04,24.80
2018,07,22,17,05,24.80
2018,07,22,17,06,24.90
2018,07,22,17,07,25.00
2018,07,22,17,08,25.00
2018,07,22,17,09,25.10
2018,07,22,17,10,25.10
2018,07,22,17,11,25.20
2018,07,22,17,12,25.20
2018,07,22,17,13,25.30
2018,07,22,17,14,25.30
2018,07,22,17,15,25.40
2018,07,22,17,16,25.40
2018,07,22,17,17,25.40
2018,07,22,17,18,25.40
2018,07,22,17,19,25.40